EW7556 Weather Reports


time (UTC)temp
C
wind
direction
speed
KPH
gust
KPH
rain 1hr
cm
rain 24hr
cm
rain mn
cm
humidity
%
barometer
mb
20260901131512 7 216 0.0 0.0 0.00 0.00 0.00 91 1008.8
20260901130112 7 216 0.0 0.0 0.00 0.00 0.00 91 1008.8
20260901124601 7 216 0.0 0.0 0.00 0.00 0.00 91 1008.9
20260901123101 7 216 0.0 0.0 0.00 0.00 0.00 91 1008.9
20260901121608 7 216 0.0 0.0 0.00 0.00 0.00 91 1009.0
20260901120107 7 216 0.0 0.0 0.00 0.00 0.00 91 1009.0
20260901114508 8 216 0.0 0.0 0.00 0.00 0.00 91 1008.9
20260901113009 7 216 0.0 0.0 0.00 0.00 0.00 91 1008.8
20260901111523 8 216 0.0 0.0 0.00 0.00 0.00 91 1008.9
20260901110011 7 216 0.0 0.0 0.00 0.00 0.00 91 1008.9
20260901104511 8 216 0.0 0.0 0.00 0.00 0.00 91 1009.1
20260901103015 8 216 0.0 0.0 0.00 0.00 0.00 91 1009.0
20260901101546 8 216 0.0 0.0 0.00 0.00 0.00 91 1009.0
20260901100003 8 216 0.0 0.0 0.00 0.00 0.00 91 1009.1
20260901094504 8 216 0.0 0.0 0.00 0.00 0.00 91 1009.0
20260901093006 8 216 0.0 0.0 0.00 0.00 0.00 91 1008.9
20260901091511 8 216 0.0 0.0 0.00 0.00 0.00 90 1008.9
20260901090117 8 216 0.0 0.0 0.00 0.00 0.00 91 1009.0
20260901084602 8 216 0.0 0.0 0.00 0.00 0.00 90 1008.8
20260901083002 9 216 0.0 0.0 0.00 0.00 0.00 90 1008.8
20260901081509 9 216 0.0 1.6 0.00 0.00 0.00 90 1008.9
20260901080214 9 216 0.0 0.0 0.00 0.00 0.00 90 1008.7
20260901074602 9 216 0.0 0.0 0.00 0.00 0.00 90 1008.7
20260901073007 10 216 0.0 0.0 0.00 0.00 0.00 90 1008.6
20260901071511 9 216 0.0 0.0 0.00 0.00 0.00 90 1008.7
20260901070136 10 216 0.0 0.0 0.00 0.00 0.00 90 1008.8
20260901064610 10 216 0.0 0.0 0.00 0.00 0.00 90 1008.9
20260901063107 10 216 0.0 0.0 0.00 0.00 0.00 90 1008.9
20260901061603 10 216 0.0 0.0 0.00 0.00 0.00 90 1008.9
20260901060054 10 216 0.0 0.0 0.00 0.00 0.00 89 1009.2
20260901054551 10 216 0.0 0.0 0.00 0.00 0.00 89 1009.2
20260901053056 11 216 0.0 0.0 0.00 0.00 0.00 89 1009.2
20260901051554 11 216 0.0 0.0 0.00 0.00 0.00 88 1009.3
20260901050058 12 216 0.0 0.0 0.00 0.00 0.00 87 1009.3
20260901044611 12 216 0.0 0.0 0.00 0.00 0.00 86 1009.3
20260901043054 13 216 0.0 3.2 0.00 0.00 0.00 86 1009.2
20260901041557 13 216 0.0 1.6 0.00 0.00 0.00 85 1009.3
20260901040104 13 211 0.0 4.8 0.00 0.00 0.00 83 1009.3
20260901034552 13 214 0.0 6.4 0.00 0.00 0.00 83 1009.2
20260901033056 13 192 0.0 3.2 0.00 0.00 0.00 83 1009.1
20260901031502 14 210 1.6 6.4 0.00 0.00 0.00 82 1009.2
20260901030110 14 224 3.2 9.7 0.00 0.00 0.00 82 1009.1
20260901024601 15 215 4.8 11.3 0.00 0.00 0.00 79 1009.2
20260901023059 16 239 1.6 9.7 0.00 0.00 0.00 72 1009.2
20260901021613 20 250 0.0 3.2 0.00 0.00 0.00 60 1009.2
20260901020106 21 184 0.0 4.8 0.00 0.00 0.00 57 1009.2
20260901014552 21 209 0.0 3.2 0.00 0.00 0.00 58 1009.2
20260901013121 21 212 0.0 3.2 0.00 0.00 0.00 57 1009.2
20260901011603 21 236 0.0 4.8 0.00 0.00 0.00 55 1009.3
20260901010110 21 236 0.0 4.8 0.00 0.00 0.00 57 1009.4
20260901004550 20 232 0.0 1.6 0.00 0.00 0.00 57 1009.6
20260901003058 20 236 0.0 3.2 0.00 0.00 0.00 60 1009.7
20260901001607 20 328 0.0 3.2 0.00 0.00 0.00 59 1009.8
20260901000100 21 227 0.0 3.2 0.00 0.00 0.00 55 1009.9
20260831234544 21 330 0.0 4.8 0.00 0.00 0.00 58 1010.0
20260831233043 21 235 0.0 6.4 0.00 0.00 0.00 59 1010.2
20260831231601 21 216 0.0 6.4 0.00 0.00 0.00 57 1010.3
20260831230101 21 232 0.0 8.0 0.00 0.00 0.00 58 1010.5
20260831224611 21 228 0.0 6.4 0.00 0.00 0.00 57 1010.7
20260831223047 21 333 0.0 9.7 0.00 0.00 0.00 58 1011.0
20260831221551 21 319 0.0 4.8 0.00 0.00 0.00 58 1011.0
20260831220052 21 226 0.0 9.7 0.00 0.00 0.00 61 1011.3
20260831214540 21 252 3.2 9.7 0.00 0.00 0.00 61 1011.6
20260831213035 21 354 3.2 8.0 0.00 0.00 0.00 61 1011.8
20260831211546 21 342 1.6 8.0 0.00 0.00 0.00 61 1012.0
20260831210042 20 245 1.6 9.7 0.00 0.00 0.00 61 1012.1
20260831204533 20 355 1.6 8.0 0.00 0.00 0.00 62 1012.2
20260831203038 21 332 3.2 9.7 0.00 0.00 0.00 64 1012.4
20260831201544 20 213 1.6 8.0 0.00 0.00 0.00 66 1012.6
20260831200028 19 325 0.0 6.4 0.00 0.00 0.00 68 1012.8
20260831194541 19 346 0.0 8.0 0.00 0.00 0.00 67 1012.8
20260831193047 20 225 0.0 6.4 0.00 0.00 0.00 64 1013.0
20260831191546 20 340 1.6 11.3 0.00 0.00 0.00 65 1013.2
20260831190043 20 346 1.6 8.0 0.00 0.00 0.00 66 1013.4
20260831184527 19 348 1.6 6.4 0.00 0.00 0.00 68 1013.5
20260831183030 19 355 1.6 8.0 0.00 0.00 0.00 69 1013.8
20260831181535 19 317 3.2 9.7 0.00 0.00 0.00 70 1013.9
20260831180041 18 352 0.0 6.4 0.00 0.00 0.00 72 1014.0
20260831174526 18 5 3.2 8.0 0.00 0.00 0.00 73 1014.1
20260831173037 18 360 1.6 8.0 0.00 0.00 0.00 72 1014.2
20260831171532 18 321 1.6 6.4 0.00 0.00 0.00 72 1014.3
20260831170036 18 230 1.6 9.7 0.00 0.00 0.00 75 1014.4
20260831164519 17 331 0.0 4.8 0.00 0.00 0.00 75 1014.5
20260831163021 17 336 0.0 4.8 0.00 0.00 0.00 78 1014.6
20260831161534 17 347 0.0 3.2 0.00 0.00 0.00 82 1014.6
20260831160042 16 340 0.0 3.2 0.00 0.00 0.00 85 1014.6
20260831154536 15 229 0.0 1.6 0.00 0.00 0.00 90 1014.8
20260831153025 13 200 0.0 0.0 0.00 0.00 0.00 90 1014.8
20260831151529 13 196 0.0 0.0 0.00 0.00 0.00 91 1014.8
20260831150009 12 196 0.0 0.0 0.00 0.00 0.00 91 1014.8
20260831144511 11 196 0.0 0.0 0.00 0.00 0.00 91 1014.8
20260831143012 10 196 0.0 0.0 0.00 0.00 0.00 91 1015.0
20260831141516 8 196 0.0 0.0 0.00 0.00 0.00 91 1015.0
20260831140002 8 196 0.0 0.0 0.00 0.00 0.00 91 1014.9
20260831134607 7 196 0.0 0.0 0.00 0.00 0.00 91 1014.9
20260831133015 8 196 0.0 0.0 0.00 0.00 0.00 91 1014.9